Printer-friendly version

IAU Minor Planet Center

Minor Planet Center

(89) Julia

Orbital Elements

The following orbital elements are taken from MPC 30777:
   (89) Julia
Epoch 2005 Jan. 30.0 TT = JDT 2453400.5                 Goffin
M 319.66588              (2000.0)            P               Q
n   0.24202909     Peri.   45.08235     +0.97752935     +0.03605301
a   2.5501027      Node   311.65881     -0.14748165     +0.82094624
e   0.1836203      Incl.   16.14048     +0.15061717     +0.56986616
P   4.07           H    6.60          G   0.15           U   0
From 722 observations at 59 oppositions, 1866-1995, mean residual 0".54.
An explanation of the orbital elements is available.

These orbital elements are also available in forms suitable for loading into a number of popular planetarium-type software programs.


Ephemeris

The following ephemeris is at intervals of five days. A daily ephemeris covering the same time interval is also available.

Personalized ephemerides for this object (and others) can be generated using the MPES.

Date    TT    R. A. (2000) Decl.     Delta      r     Elong.  Phase     V
 
2005 07 20    01 19.50   +22 52.9    1.812    2.082    90.3    29.2    10.8
2005 07 25    01 25.03   +24 16.5    1.762    2.082    93.2    29.1    10.7
2005 07 30    01 30.16   +25 39.3    1.713    2.083    96.2    29.0    10.6
2005 08 04    01 34.82   +27 01.0    1.664    2.084    99.3    28.7    10.6
2005 08 09    01 38.95   +28 21.3    1.617    2.086   102.5    28.3    10.5
2005 08 14    01 42.50   +29 40.1    1.570    2.087   105.8    27.8    10.4
2005 08 19    01 45.41   +30 56.9    1.526    2.089   109.2    27.2    10.3
2005 08 24    01 47.62   +32 11.3    1.483    2.092   112.6    26.5    10.3
2005 08 29    01 49.04   +33 22.7    1.442    2.094   116.2    25.6    10.2
2005 09 03    01 49.62   +34 30.5    1.403    2.097   119.9    24.6    10.1
2005 09 08    01 49.31   +35 33.7    1.367    2.100   123.7    23.5    10.0
2005 09 13    01 48.07   +36 31.5    1.334    2.104   127.5    22.3     9.9
2005 09 18    01 45.90   +37 22.8    1.304    2.107   131.3    21.0     9.8
2005 09 23    01 42.84   +38 06.6    1.278    2.112   135.1    19.6     9.7
2005 09 28    01 38.92   +38 41.7    1.256    2.116   138.9    18.2     9.7
2005 10 03    01 34.27   +39 07.0    1.238    2.120   142.4    16.7     9.6
2005 10 08    01 29.06   +39 21.9    1.225    2.125   145.5    15.4     9.5
2005 10 13    01 23.49   +39 25.8    1.217    2.130   148.2    14.3     9.5
2005 10 18    01 17.81   +39 18.9    1.214    2.136   150.1    13.5     9.4
2005 10 23    01 12.25   +39 01.7    1.216    2.141   151.1    13.0     9.4
2005 10 28    01 07.04   +38 35.0    1.224    2.147   151.0    13.0     9.5
2005 11 02    01 02.40   +38 00.3    1.237    2.153   149.9    13.4     9.5
2005 11 07    00 58.52   +37 19.2    1.255    2.160   147.8    14.1     9.6
2005 11 12    00 55.51   +36 33.9    1.279    2.166   145.1    15.1     9.7
2005 11 17    00 53.46   +35 46.0    1.308    2.173   141.9    16.3     9.7
2005 11 22    00 52.38   +34 57.4    1.341    2.180   138.3    17.5     9.8
2005 11 27    00 52.28   +34 09.5    1.379    2.187   134.5    18.8    10.0
2005 12 02    00 53.14   +33 23.5    1.421    2.195   130.6    19.9    10.1
2005 12 07    00 54.91   +32 40.5    1.467    2.202   126.7    21.0    10.2
2005 12 12    00 57.54   +32 01.3    1.516    2.210   122.7    22.0    10.3
2005 12 17    01 00.95   +31 26.3    1.569    2.218   118.8    22.9    10.4
2005 12 22    01 05.08   +30 55.6    1.624    2.226   115.0    23.6    10.5
2005 12 27    01 09.86   +30 29.4    1.681    2.234   111.2    24.2    10.6

Back to Bright Minor Planets

Astronomical Headlines Index

MPC


Valid HTML 4.01!